User: anonymous   Login
Location: Darlington Observatory
(36.4817°N, 105.8156°W)
Time: 12:15:49
(UTC-07:00)
Language:

MOS 1 - Orbit

View from above orbital plane
View from above orbital plane
View from above satellite
View from above satellite

Ground track
Ground track

The orbit data is extracted from the following two-line orbital elements,

1 17527U 87018A   15058.95552003 -.00000021  00000-0  16293-4 0  9993
2 17527 099.2434 048.3457 0009861 083.2567 330.2157 14.02366431431684
Epoch (UTC): 27 February 2015 22:55:56
Eccentricity: 0.0009861
inclination: 99.2434°
perigee height: 878 km
apogee height: 893 km
right ascension of ascending node: 48.3457°
argument of perigee: 83.2567°
revolutions per day: 14.02366431
mean anomaly at epoch: 330.2157°
orbit number at epoch: 43168

The dashed part of the orbit path shows where the satellite is in the earth's shadow,  

DLR